Regional Weather Roundup
Issued by NWS

Home | Current Version | Previous Version | Graphics & Text | Print | Product List | Glossary On
Versions: 1 2 3 4 5 6 7 8 9 10 11 12 13 14 15 16 17 18 19 20 21 22 23 24 25 26 27 28
000
ASUS45 KCYS 240310
RWRWY

WYOMING REGIONAL WEATHER ROUNDUP
NATIONAL WEATHER SERVICE CHEYENNE WY
900 PM MDT SAT SEP 23 2017

NOTE:  "FAIR" INDICATES FEW OR NO CLOUDS BELOW 12,000 FEET
WITH NO SIGNIFICANT WEATHER AND/OR OBSTRUCTIONS TO VISIBILITY.

WYZ001-240400-
YELLOWSTONE NATIONAL PARK

CITY           SKY/WX    TMP DP  RH WIND       PRES   REMARKS
LK YELLOWSTONE NOT AVBL
W YELLOWSTONE  NOT AVBL

$$
WYZ002>013-054>058-071-098>099-240400-
NORTHERN WYOMING

CITY           SKY/WX    TMP DP  RH WIND       PRES   REMARKS
JACKSON        CLOUDY    42  35  76 N7        29.98S
CODY           CLOUDY    39  33  79 N9        30.10R WCI  33
GREYBULL       LGT RAIN  43  41  93 NW10      30.03F
WORLAND        LGT RAIN  42  41  96 N8        30.05S
SHERIDAN       CLOUDY    41  40  96 N5        30.09F
BUFFALO        CLOUDY    38  35  89 N10       30.07F WCI  31
GILLETTE       CLOUDY    41 N/A N/A N10       30.05F
HULETT         LGT RAIN  41  41 100 NE3       30.07R
NEWCASTLE      RAIN      43  43 100 SE3       30.04S

$$
WYZ014>020-022>026-101>103-240400-
CENTRAL WYOMING

CITY           SKY/WX    TMP DP  RH WIND       PRES   REMARKS
BIG PINEY      LGT RAIN  42  36  79 N5        29.97R
PINEDALE       CLOUDY    41  36  81 CALM      29.97S
DUBOIS         CLOUDY    36  34  93 SE9       30.01S WCI  29
LANDER         LGT RAIN  39  38  96 W5        30.03R
RIVERTON       LGT RAIN  40  39  97 CALM      30.04R
CASPER         FLURRIES  38  37  97 N18G25    30.01R WCI  28
DOUGLAS        CLOUDY    43  41  93 E6        30.01R

$$
WYZ021-027>030-104>119-240400-
SOUTHERN WYOMING

CITY           SKY/WX    TMP DP  RH WIND       PRES   REMARKS
EVANSTON       LGT SNOW  33  33 100 NW5       29.97R FOG     WCI  29
KEMMERER         N/A     37  34  87 NE13      29.94S WCI  29
FORT BRIDGER   CLOUDY    37  37  99 SW18G29   29.96R WCI  27
ROCK SPRINGS   CLOUDY    37  33  85 NE18      29.95R WCI  27
DIXON          FAIR      47  38  72 CALM      29.95S
RAWLINS        MOCLDY    41  38  89 N8        29.97R
SARATOGA       FAIR      43  37  81 SE5       29.94S
LARAMIE        CLOUDY    42  39  89 SE10      29.97R
CHEYENNE       LGT RAIN  41  39  93 E13       29.97F
TORRINGTON     LGT RAIN  44  43  96 NE7       29.99F
PINE BLUFFS    RAIN      41  41 100 NE8       29.99S

$$




USA.gov is the U.S. government's official web portal to all federal, state and local government web resources and services.